Miscellaneous Local Product
Issued by NWS North Platte, NE

Home | Current Version | Previous Version | Text Only | Print | Product List | Glossary On
Versions: 1 2 3 4 5 6 7 8 9 10 11 12 13 14 15 16 17 18 19 20 21 22 23 24 25 26 27 28 29 30 31 32 33 34 35 36 37 38 39 40 41 42 43 44 45 46 47 48 49 50
000
AXUS43 KLBF 240010
MISLBF


WESTERN AND NORTH CENTRAL NEBRASKA HOURLY WEATHER ROUNDUP
NATIONAL WEATHER SERVICE NORTH PLATTE NE
700 PM CDT FRI JUN 23 2017

NOTE: "FAIR" INDICATES FEW OR NO CLOUDS BELOW 12,000 FEET WITH NO
SIGNIFICANT WEATHER AND/OR OBSTRUCTIONS TO VISIBILITY.

NOTE: STATIONS NOT REPORTING VARIABLES SUCH AS SKY/WEATHER OR
PRESSURE ARE PROVIDED BY RAWS AND APRS NETWORKS AND ARE NOT UNDER
NATIONAL WEATHER SERVICE QUALITY CONTROL.

...OBSERVATIONS IN AND NEAR THE EASTERN PANHANDLE OF NEBRASKA...

CITY           SKY/WX    TMP DP  RH WIND       PRES   REMARKS
PINE RIDGE     SUNNY     70  36  28 N13       30.16R
GORDON         FAIR      68  36  30 N12G17    30.16S
CHADRON        SUNNY     72  26  18 NW16G25   30.15R
ALLIANCE       SUNNY     71  31  22 NW15G23   30.16S
SIDNEY         SUNNY     72  35  25 N12G18    30.19S
$$

...OBSERVATIONS IN NORTHERN NEBRASKA AND FAR SOUTHERN SOUTH DAKOTA...

CITY           SKY/WX    TMP DP  RH WIND       PRES   REMARKS
WINNER         FAIR      73  31  21 NW22G29   30.09R
VALENTINE      MOSUNNY   73  30  20 N14       30.12R
THEDFORD       SUNNY     72  38  29 N16G22    30.14S
AINSWORTH      MOSUNNY   70  36  28 NW20      30.12R
O`NEILL        SUNNY     71  38  30 NW14G24   30.08R
ORD            SUNNY     71  39  31 NW15      30.07S
BROKEN BOW     MOSUNNY   73  41  31 NW14      30.10R
HALSEY           N/A     74  39  27 NW9G22      N/A
BUTTE            N/A     68  36  30 NW15G23     N/A
CHAMBERS         N/A     78  45  30 CALM        N/A
EWING            N/A     69  42  38 NW10G20     N/A
$$

...OBSERVATIONS IN SOUTHWEST NEBRASKA AND FAR NORTHEAST COLORADO...

CITY           SKY/WX    TMP DP  RH WIND       PRES   REMARKS
WRAY           FAIR      73  41  31 N8        30.17S
IMPERIAL       SUNNY     76  34  21 W7        30.12F
OGALLALA       SUNNY     77  32  19 N13G22    30.13S
NORTH PLATTE   MOSUNNY   76  40  27 N12       30.10S
MCCOOK         MOSUNNY   79  35  20 N15       30.09F
LEXINGTON      SUNNY     74  43  32 N10G17    30.09F
STAPLETON        N/A     72  43  34 CALM        N/A
GOTHENBURG       N/A     74  39  27 N12         N/A
CALLAWAY         N/A     73  46  38 NW18        N/A
$$

...OBSERVATIONS IN CENTRAL LINCOLN COUNTY AREA...

CITY           SKY/WX    TMP DP  RH WIND       PRES   REMARKS
N.P. AIRPORT   MOSUNNY   76  40  27 N12       30.10S
N.P. DOWNTOWN    N/A     74  44  33 N6          N/A
N.P. SOUTHEAST   N/A     74  43  32 N7G14       N/A
N.P. HILLCREST   N/A     73  41  32 N13G21      N/A
$$

...SOME OBSERVATIONS FROM AROUND THE REGION...

CITY           SKY/WX    TMP DP  RH WIND       PRES   REMARKS
DENVER         CLOUDY    61  45  55 S6        30.25S
LIMON          MOSUNNY   63  43  48 S5        30.25S
ASPEN          SUNNY     78  18  10 NW17G25   30.23S
LARAMIE        CLOUDY    62  39  42 E16       30.27R
CASPER         SUNNY     68  31  25 E13       30.23R
CHEYENNE       PTSUNNY   61  42  49 SE10      30.26S
SCOTTSBLUFF    MOSUNNY   73  31  21 N12G22    30.17S
GRAND ISLAND   MOSUNNY   74  46  36 NW18G26   30.07S
OMAHA          PTSUNNY   74  50  42 NW14      29.99R
SIOUX FALLS    MOSUNNY   68  42  38 NW22G28   29.99S
PIERRE         SUNNY     69  32  25 NW17G26   30.08S
RAPID CITY     SUNNY     69  27  20 N22G33    30.17R
BISMARCK       MOSUNNY   66  34  30 N24G31    30.07R
KANSAS CITY    MOSUNNY   75  54  47 NW15      29.99R
HILL CITY      MOSUNNY   80  45  28 N12       30.08S
WICHITA        MOSUNNY   79  49  34 N10       30.01S
DODGE CITY     CLOUDY    72  47  40 N14       30.11F
OKLAHOMA CITY  PTSUNNY   87  51  28 NE21G26   29.93R
DALLAS         MOSUNNY   97  73  45 SE8       29.77R HX 107
AMARILLO       SUNNY     83  50  31 NE16G26   30.06S
$$




USA.gov is the U.S. government's official web portal to all federal, state and local government web resources and services.